Jack Guidry — WDF2422 — position and weather

sailwx.info

Track history (hours):
 
Tides and Currents Weather Stations Pressure Air Temp Water Temp Dewpoint Dewpoint Depression Visibility Wind Speed Wind Dir Waves Ship Positions

Jack Guidry

Owner: Enterprise Marine Services, LLC, San Antonio, TX. More information available from US FCC via Universal Licensing System and Coast Guard Vessel Documentation Center.

Last reported at 2014-Oct-18 22:33 UTC. Time now 2014-Oct-22 04:47 UTC.
Position N 29°30' W 094°52'.

Length 22 m; draft 2.5 m.

Type: Other ship. MMSI: 367003430.

Date/timePositionNaut miles runAvg speedWind from/ knotsBaromVisibWave heightAir tempDewpointWater temp
2014-Oct-18 22:33N 29°30' W 094°52'6 6.0
2014-Oct-18 21:33N 29°35' W 094°56'6 6.1
2014-Oct-18 20:33N 29°41' W 094°59'5 5.3
2014-Oct-18 19:33N 29°44' W 095°04'3 1.6
2014-Oct-18 17:32N 29°47' W 095°05'0 0.0
2014-Oct-18 16:33N 29°47' W 095°05'0 0.2
2014-Oct-18 15:04N 29°47' W 095°05'0 0.4
2014-Oct-18 14:33N 29°47' W 095°05'4 3.7
2014-Oct-18 13:33N 29°44' W 095°03'5 4.8
2014-Oct-18 12:33N 29°41' W 094°59'4 3.9
2014-Oct-18 11:33N 29°37' W 094°60'2 1.6
2014-Oct-18 10:33N 29°37' W 095°02'0 0.0
2014-Oct-18 09:33N 29°37' W 095°02'0 0.0
2014-Oct-18 08:33N 29°37' W 095°02'0 0.0
2014-Oct-18 07:34N 29°37' W 095°02'0 0.0
2014-Oct-18 06:33N 29°37' W 095°02'0 0.0
2014-Oct-18 05:34N 29°37' W 095°02'0 0.0
2014-Oct-18 04:34N 29°37' W 095°02'0 0.0
2014-Oct-18 03:34N 29°37' W 095°02'0 0.0
2014-Oct-18 02:33N 29°37' W 095°02'0 0.0
2014-Oct-18 01:33N 29°37' W 095°02'0 0.0
2014-Oct-18 00:33N 29°37' W 095°02'0 0.0
2014-Oct-17 23:33N 29°37' W 095°02'0 0.0
2014-Oct-17 22:33N 29°37' W 095°02'0 0.0
2014-Oct-17 21:33N 29°37' W 095°02'0 0.0
2014-Oct-17 20:34N 29°37' W 095°02'0 0.0
2014-Oct-17 19:33N 29°37' W 095°02'0 0.0
2014-Oct-17 18:33N 29°37' W 095°02'0 0.0
2014-Oct-17 17:34N 29°37' W 095°02'0 0.0
2014-Oct-17 16:33N 29°37' W 095°02'0 0.1
2014-Oct-17 15:33N 29°37' W 095°01'0 0.0
2014-Oct-17 14:33N 29°37' W 095°01'0 0.0
2014-Oct-17 13:33N 29°37' W 095°01'1 0.5
2014-Oct-17 12:33N 29°37' W 095°01'3 3.5
2014-Oct-17 11:34N 29°36' W 094°57'6 5.5
2014-Oct-17 10:33N 29°32' W 094°53'  
2014-Oct-14 02:32N 29°30' W 094°52'8 7.8
2014-Oct-14 01:33N 29°36' W 094°57'8 7.6
2014-Oct-14 00:34N 29°43' W 095°01'5 2.6
2014-Oct-13 22:33N 29°47' W 095°05'3 3.1
2014-Oct-13 21:32N 29°45' W 095°06'1 0.3
2014-Oct-13 16:24N 29°44' W 095°08'0 0.0
2014-Oct-13 15:13N 29°44' W 095°08'0 0.0
2014-Oct-13 14:12N 29°44' W 095°08'0 0.1
2014-Oct-13 07:33N 29°44' W 095°07'3 2.8
2014-Oct-13 06:31N 29°46' W 095°05'1 0.0
2014-Oct-12 11:29N 29°47' W 095°05'1 0.6
2014-Oct-12 10:28N 29°47' W 095°05'0 0.0
2014-Oct-12 02:33N 29°47' W 095°05'0 0.1
2014-Oct-12 01:32N 29°47' W 095°05'1 0.9
2014-Oct-12 00:17N 29°46' W 095°05'4 5.6
2014-Oct-11 23:32N 29°44' W 095°09'3 0.2
2014-Oct-11 09:24N 29°44' W 095°12'5 6.3
2014-Oct-11 08:33N 29°45' W 095°06'5 4.9
2014-Oct-11 07:33N 29°43' W 095°01'7 6.8
2014-Oct-11 06:33N 29°37' W 094°57'7 7.3
2014-Oct-11 05:33N 29°31' W 094°53'184 5.4
2014-Oct-09 19:23N 29°38' W 091°21'6 7.1
2014-Oct-09 18:33N 29°40' W 091°14'6 5.5
2014-Oct-09 17:33N 29°40' W 091°08'8 6.3
2014-Oct-09 16:13N 29°37' W 090°59'  
Track history (hours):
 
Tides and Currents Weather Stations Pressure Air Temp Water Temp Dewpoint Dewpoint Depression Visibility Wind Speed Wind Dir Waves Ship Positions

Jack Guidry

Owner: Enterprise Marine Services, LLC, San Antonio, TX. More information available from US FCC via Universal Licensing System and Coast Guard Vessel Documentation Center.

Last reported at 2014-Oct-18 22:33 UTC. Time now 2014-Oct-22 04:47 UTC.
Position N 29°30' W 094°52'.

Length 22 m; draft 2.5 m.

Type: Other ship. MMSI: 367003430.

Date/timePositionNaut miles runAvg speedWind from/ knotsBaromVisibWave heightAir tempDewpointWater temp
2014-Oct-18 22:33N 29°30' W 094°52'6 6.0
2014-Oct-18 21:33N 29°35' W 094°56'6 6.1
2014-Oct-18 20:33N 29°41' W 094°59'5 5.3
2014-Oct-18 19:33N 29°44' W 095°04'3 1.6
2014-Oct-18 17:32N 29°47' W 095°05'0 0.0
2014-Oct-18 16:33N 29°47' W 095°05'0 0.2
2014-Oct-18 15:04N 29°47' W 095°05'0 0.4
2014-Oct-18 14:33N 29°47' W 095°05'4 3.7
2014-Oct-18 13:33N 29°44' W 095°03'5 4.8
2014-Oct-18 12:33N 29°41' W 094°59'4 3.9
2014-Oct-18 11:33N 29°37' W 094°60'2 1.6
2014-Oct-18 10:33N 29°37' W 095°02'0 0.0
2014-Oct-18 09:33N 29°37' W 095°02'0 0.0
2014-Oct-18 08:33N 29°37' W 095°02'0 0.0
2014-Oct-18 07:34N 29°37' W 095°02'0 0.0
2014-Oct-18 06:33N 29°37' W 095°02'0 0.0
2014-Oct-18 05:34N 29°37' W 095°02'0 0.0
2014-Oct-18 04:34N 29°37' W 095°02'0 0.0
2014-Oct-18 03:34N 29°37' W 095°02'0 0.0
2014-Oct-18 02:33N 29°37' W 095°02'0 0.0
2014-Oct-18 01:33N 29°37' W 095°02'0 0.0
2014-Oct-18 00:33N 29°37' W 095°02'0 0.0
2014-Oct-17 23:33N 29°37' W 095°02'0 0.0
2014-Oct-17 22:33N 29°37' W 095°02'0 0.0
2014-Oct-17 21:33N 29°37' W 095°02'0 0.0
2014-Oct-17 20:34N 29°37' W 095°02'0 0.0
2014-Oct-17 19:33N 29°37' W 095°02'0 0.0
2014-Oct-17 18:33N 29°37' W 095°02'0 0.0
2014-Oct-17 17:34N 29°37' W 095°02'0 0.0
2014-Oct-17 16:33N 29°37' W 095°02'0 0.1
2014-Oct-17 15:33N 29°37' W 095°01'0 0.0
2014-Oct-17 14:33N 29°37' W 095°01'0 0.0
2014-Oct-17 13:33N 29°37' W 095°01'1 0.5
2014-Oct-17 12:33N 29°37' W 095°01'3 3.5
2014-Oct-17 11:34N 29°36' W 094°57'6 5.5
2014-Oct-17 10:33N 29°32' W 094°53'  
2014-Oct-14 02:32N 29°30' W 094°52'8 7.8
2014-Oct-14 01:33N 29°36' W 094°57'8 7.6
2014-Oct-14 00:34N 29°43' W 095°01'5 2.6
2014-Oct-13 22:33N 29°47' W 095°05'3 3.1
2014-Oct-13 21:32N 29°45' W 095°06'1 0.3
2014-Oct-13 16:24N 29°44' W 095°08'0 0.0
2014-Oct-13 15:13N 29°44' W 095°08'0 0.0
2014-Oct-13 14:12N 29°44' W 095°08'0 0.1
2014-Oct-13 07:33N 29°44' W 095°07'3 2.8
2014-Oct-13 06:31N 29°46' W 095°05'1 0.0
2014-Oct-12 11:29N 29°47' W 095°05'1 0.6
2014-Oct-12 10:28N 29°47' W 095°05'0 0.0
2014-Oct-12 02:33N 29°47' W 095°05'0 0.1
2014-Oct-12 01:32N 29°47' W 095°05'1 0.9
2014-Oct-12 00:17N 29°46' W 095°05'4 5.6
2014-Oct-11 23:32N 29°44' W 095°09'3 0.2
2014-Oct-11 09:24N 29°44' W 095°12'5 6.3
2014-Oct-11 08:33N 29°45' W 095°06'5 4.9
2014-Oct-11 07:33N 29°43' W 095°01'7 6.8
2014-Oct-11 06:33N 29°37' W 094°57'7 7.3
2014-Oct-11 05:33N 29°31' W 094°53'184 5.4
2014-Oct-09 19:23N 29°38' W 091°21'6 7.1
2014-Oct-09 18:33N 29°40' W 091°14'6 5.5
2014-Oct-09 17:33N 29°40' W 091°08'8 6.3
2014-Oct-09 16:13N 29°37' W 090°59'  

Dump ship's entire track history